TimeCST,TemperatureF,Dew PointF,Humidity,Sea Level PressureIn,VisibilityMPH,Wind Direction,Wind SpeedMPH,Gust SpeedMPH,PrecipitationIn,Events,Conditions,WindDirDegrees,DateUTC
12:53 AM,33.1,25.0,72,30.31,10.0,Calm,Calm,-,N/A,,Clear,0,2012-12-31 06:53:00
1:53 AM,33.1,25.0,72,30.30,10.0,SSW,3.5,-,N/A,,Clear,200,2012-12-31 07:53:00
2:53 AM,34.0,25.0,70,30.31,10.0,SW,4.6,-,N/A,,Clear,220,2012-12-31 08:53:00
3:53 AM,34.0,25.0,70,30.30,10.0,SSW,4.6,-,N/A,,Clear,210,2012-12-31 09:53:00
4:53 AM,34.0,26.1,73,30.30,10.0,SSW,3.5,-,N/A,,Overcast,210,2012-12-31 10:53:00
5:53 AM,34.0,26.1,73,30.30,10.0,Calm,Calm,-,N/A,,Overcast,0,2012-12-31 11:53:00
6:53 AM,34.0,26.1,73,30.27,10.0,Variable,3.5,-,N/A,,Overcast,0,2012-12-31 12:53:00
7:53 AM,35.1,26.1,70,30.26,10.0,South,8.1,-,0.01,,Overcast,180,2012-12-31 13:53:00
8:53 AM,36.0,27.0,70,30.26,10.0,Variable,4.6,-,N/A,,Overcast,0,2012-12-31 14:53:00
9:53 AM,37.0,27.0,67,30.24,10.0,South,6.9,-,N/A,,Overcast,180,2012-12-31 15:53:00
10:53 AM,37.0,28.0,70,30.24,10.0,SW,4.6,-,N/A,,Overcast,230,2012-12-31 16:53:00
11:53 AM,37.9,28.0,68,30.21,10.0,SSW,5.8,-,N/A,,Partly Cloudy,210,2012-12-31 17:53:00
12:53 PM,39.9,28.0,63,30.16,10.0,SSW,6.9,-,N/A,,Mostly Cloudy,210,2012-12-31 18:53:00
1:53 PM,41.0,28.9,62,30.16,10.0,WSW,5.8,-,N/A,,Overcast,240,2012-12-31 19:53:00
2:53 PM,41.0,28.9,62,30.14,10.0,SSW,3.5,-,N/A,,Mostly Cloudy,210,2012-12-31 20:53:00
3:53 PM,41.0,30.0,65,30.13,10.0,South,3.5,-,N/A,,Overcast,180,2012-12-31 21:53:00
4:53 PM,39.0,33.1,79,30.13,10.0,Calm,Calm,-,0.00,Rain,Light Rain,0,2012-12-31 22:53:00
5:53 PM,37.0,35.1,93,30.13,4.0,Calm,Calm,-,0.04,Rain,Light Rain,0,2012-12-31 23:53:00
6:53 PM,36.0,35.1,97,30.10,3.0,ENE,3.5,-,0.10,Rain,Light Rain,60,2013-01-01 00:53:00
7:32 PM,35.6,35.6,100,30.10,2.5,SE,3.5,-,0.02,Rain,Light Rain,130,2013-01-01 01:32:00
7:50 PM,37.4,35.6,93,30.08,3.0,SW,6.9,-,0.05,Rain,Light Rain,220,2013-01-01 01:50:00
7:53 PM,37.0,35.1,93,30.09,3.0,South,4.6,-,0.06,Rain,Light Rain,180,2013-01-01 01:53:00
8:33 PM,37.4,35.6,93,30.07,3.0,SE,6.9,-,0.06,Rain,Light Rain,140,2013-01-01 02:33:00
8:53 PM,37.0,36.0,96,30.06,2.0,SE,4.6,-,0.08,Rain,Light Rain,130,2013-01-01 02:53:00
9:04 PM,37.4,35.6,93,30.05,2.0,ESE,4.6,-,0.02,Rain,Light Rain,120,2013-01-01 03:04:00
9:19 PM,37.4,35.6,93,30.06,2.5,Calm,Calm,-,0.04,Rain,Light Rain,0,2013-01-01 03:19:00
9:53 PM,37.0,36.0,96,30.07,2.5,Calm,Calm,-,0.07,Rain,Light Rain,0,2013-01-01 03:53:00
10:06 PM,37.4,35.6,93,30.06,3.0,Calm,Calm,-,0.00,,Overcast,0,2013-01-01 04:06:00
10:45 PM,37.4,35.6,93,30.06,2.0,Calm,Calm,-,0.00,,Overcast,0,2013-01-01 04:45:00
10:53 PM,37.0,36.0,96,30.07,1.8,Calm,Calm,-,0.00,,Overcast,0,2013-01-01 04:53:00
11:30 PM,37.4,35.6,93,30.07,1.2,North,4.6,-,0.01,,Overcast,10,2013-01-01 05:30:00
11:53 PM,37.0,36.0,96,30.06,1.0,NNE,4.6,-,0.01,,Overcast,30,2013-01-01 05:53:00